Weather in Volokovaya

Russia / Nenets Autonomous Okrug     66°29′00″N   48°14′36″E
temp.,
°C
wind,
m/s
gust,
m/s
humid.,
%
clouds,
%
prec.,
mm/h
press.,
hPa
HPBL,
m
27 february, sat
sat2700:00−16sse599497 0.1 1007348
03:00−17s599598 0.3 1008325
06:00−17sse599391 0.1 1007276
09:00−17s699595 0.3 1009364
12:00−15s6994100 0.6 1008406
15:00−15s5993100 0.8 1008415
18:00−15s489597 0.3 1008339
21:00−14s479699 0.8 1008308
28 february, sun
sun2800:00−15ssw369595 0.3 1008142
03:00−18ssw349893 0.3 100830
06:00−19ssw349990 0.0 100826
09:00−15s359693 0.3 1008138
12:00−11ssw469497 0.3 1009218
15:00−9sw469595 0.5 1010221
18:00−11ssw449694 0.2 100977
21:00−11ssw459697 0.4 101085
1 march, mon
mon100:00−10ssw4696100 0.2 1008132
03:00−6ssw61195100 0.6 1006414
06:00−6ssw71394100 0.6 1003499
09:00−5ssw81494100 1.1 999545
12:00−3ssw91495100 1.7 994719
15:00−1sw91594100 3.6 992625
18:000wnw71098100 1.8 990453
21:00−1w61095100 2.8 990446
2 march, tue
tue200:00−3w489799 0.2 990186
03:00−6w479793 0.4 990141
06:00−8sw449792 0.0 98966
09:00−8sw599686 0.1 989206
12:00−5sw7119498 0.6 988506
15:00−3w8129499 1.4 988780
18:00−4wnw111695100 1.2 989764
21:00−5nw121795100 3.1 991907
3 march, wed
wed300:00−6nw111794100 1.3 993775
03:00−10nw8159293 1.6 995320
06:00−12nw6119634 0.0 996169
09:00−11wnw5109661 0.0 997233
12:00−7wnw6109296 0.1 997476
15:00−7w599598 0.3 997345
18:00−7w61195100 0.5 997374
21:00−9w61096100 0.9 997254